Regional Weather Roundup
Issued by NWS

Home | Current Version | Previous Version | Text Only | Print | Product List | Glossary Off
Versions: 1 2 3 4 5 6 7 8 9 10 11 12 13 14 15 16 17 18 19 20 21 22 23 24 25 26 27 28 29 30 31 32 33 34 35 36 37 38 39 40 41 42 43 44 45 46 47 48 49 50

000
ASUS44 KMEG 241000
RWRTN
TENNESSEE HOURLY STATE WEATHER ROUNDUP
NATIONAL WEATHER SERVICE MEMPHIS TN
400 AM CST MON NOV 24 2014

TNZ002-004-019-021-049-052-054-088>092-241100-
WEST TENNESSEE

CITY           SKY/WX    TMP DP  RH WIND       PRES   REMARKS
MEMPHIS INTL   MOCLDY    59  49  69 W15G28    29.56R
NWS MEMPHIS      N/A     58 N/A N/A MISG        N/A
JACKSON        CLOUDY    60  51  72 SW20G35   29.50R
DYERSBURG      CLOUDY   N/A N/A N/A W31G44    29.49R
UNION CITY     MOCLDY    57  52  82 SW16      29.40R
PARIS          MOCLDY    57  52  82 SW22      29.42R
LEXINGTON      MOCLDY    61  52  72 SW24      29.47R
SAVANNAH       CLOUDY    61  55  82 SW17      29.54R
$$

TNZ008-025-027-028-033-062-065-066-241100-
NORTH MIDDLE TENNESSEE

CITY           SKY/WX    TMP DP  RH WIND       PRES   REMARKS
NASHVILLE      PTCLDY    62  55  77 S18G33    29.48S
CLARKSVILLE    CLOUDY    62  53  72 S18G35    29.40R
COOKEVILLE     PTCLDY    61  54  77 SW20      29.54S
CROSSVILLE     CLOUDY    60  52  74 S12G28    29.60R
$$

TNZ061-075-076-078-094-096-097-241100-
SOUTH MIDDLE TENNESSEE

CITY           SKY/WX    TMP DP  RH WIND       PRES   REMARKS
FAYETTEVILLE   CLEAR     59  54  82 MISG      29.59S
TULLAHOMA      MOCLDY    61  54  77 S17       29.58S
WINCHESTER     CLEAR     61  54  77 S16G28    29.61S
SHELBYVILLE    MOCLDY    63  57  82 S21G39    29.55S
$$

TNZ017-018-042-046-047-241100-
NORTHEAST TENNESSEE

CITY           SKY/WX    TMP DP  RH WIND       PRES   REMARKS
TRI CITIES     CLEAR     51  48  89 CALM      29.63F
ELIZABETHTON   SUNNY     45  45 100 CALM      29.64S
$$

TNZ012-013-036-069-073-074-241100-
CENTRAL EAST TENNESSEE

CITY           SKY/WX    TMP DP  RH WIND       PRES   REMARKS
KNOXVILLE      CLOUDY    61  52  72 SW24G33   29.63R
OAK RIDGE      MOCLDY    61  53  75 SW10G23   29.64R
GATLINBURG     MOSUNNY   61  46  59 NW5       29.62R
MORRISTOWN     SUNNY     61  52  72 W12       29.63R
$$

TNZ083-085-099-241100-
SOUTHEAST TENNESSEE

CITY           SKY/WX    TMP DP  RH WIND       PRES   REMARKS
CHATTANOOGA    CLOUDY    62  56  80 S10       29.66S
$$

SKY/WX REPORTED AS FAIR MEANS FEW OR NO CLOUDS BELOW
12 THOUSAND FEET.




USA.gov is the U.S. government's official web portal to all federal, state and local government web resources and services.